Location: Rioux
(40.7500°S, 175.7500°E)
Time: 11:22:27
(UTC+00:00)

USA 59 Rocket - Pass Details

Date: 12 June 2024
Orbit: 383 x 1740 km, 63.3° (Epoch: 20 July)

Event Time Altitude Azimuth Distance (km) Brightness Sun altitude
Exits shadow 17:00:42 19° 201° (SSW) 3,199 3.4 -29.0°
Maximum altitude 17:07:18 41° 142° (SE) 1,982 2.7 -27.8°
Drops below altitude 10° 17:14:30 10° 73° (ENE) 3,073 4.6 -26.4°
Sets 17:17:04 0° 65° (ENE) 3,836 5.3 -25.9°
